Flag for United Kingdom Weather past 2 weeks in Walsall, England, United Kingdom

Now
54 °F

Passing clouds.


Feels Like: 49 °F
Forecast: 51 / 54 °F
Wind: 14 mph from Southwest

Location: Birmingham / Airport

Current Time: Dec 22, 2014 at 7:15:09 AM

Latest Report: Dec 22, 2014 at 6:50 AM


Visibility: N/A

Pressure: 29.92 "Hg

Humidity: 77%

Dew point: 46 °F

Location of WalsallLocation

Historic Weather in Walsall — Graph

°F

Walsall temperature yesterday

Maximum temperature yesterday: 54 °F (at 10:20 PM)
Minimum temperature yesterday: 41 °F (at 1:20 AM)
Average temperature yesterday: 48 °F

Past Weeks' High & Low Weather Summary

 TemperatureHumidityPressure
High57 °F (Dec 18, 10:20 AM)100% (Dec 9, 9:20 PM)30.39 "Hg (Dec 9, 9:20 PM)
Low28 °F (Dec 13, 7:20 AM)53% (Dec 7, 2:20 PM)29.12 "Hg (Dec 12, 3:50 AM)
Average44 °F82%29.88 "Hg
* Reported Dec 7 6:20 AM — Dec 22 6:20 AM, Walsall, Weather by CustomWeather, © 2014

Note: Actual official high and low records may vary slightly from our data, if they occured in-between our weather recording intervals... More about our weather records

Advertising

Walsall weather history for previous 24 hours

 ConditionsComfort  
Time TempWeatherWind HumidityBarometerVisibility
6:20 AM
Dec 22
55 °FPassing clouds.14 mph72%29.95 "HgN/A
5:20 AM54 °FPassing clouds.15 mph82%29.95 "HgN/A
4:50 AM54 °FPassing clouds.14 mph82%29.95 "HgN/A
4:20 AM54 °FPassing clouds.14 mph82%29.95 "HgN/A
3:50 AM55 °FPassing clouds.15 mph77%29.95 "HgN/A
3:20 AM55 °FPassing clouds.16 mph77%29.98 "HgN/A
2:50 AM55 °FPassing clouds.15 mph77%29.98 "HgN/A
2:20 AM55 °FPassing clouds.15 mph77%29.98 "HgN/A
1:50 AM55 °FPassing clouds.14 mph77%29.98 "HgN/A
1:20 AM54 °FPassing clouds.13 mph82%29.98 "HgN/A
12:50 AM54 °FPassing clouds.10 mph82%30.01 "HgN/A
12:20 AM54 °FPassing clouds.12 mph82%30.01 "HgN/A
11:50 PM
Dec 21
54 °FPassing clouds.10 mph82%30.01 "HgN/A
11:20 PM54 °FPassing clouds.8 mph82%30.04 "HgN/A
10:50 PM52 °FPassing clouds.9 mph88%30.04 "HgN/A
10:20 PM54 °FPassing clouds.10 mph82%30.04 "HgN/A
9:20 PM52 °FPassing clouds.9 mph88%30.04 "HgN/A
8:50 PM52 °FPassing clouds.8 mph82%30.04 "HgN/A
8:20 PM52 °FPassing clouds.9 mph82%30.04 "HgN/A
7:50 PM52 °FPassing clouds.9 mph82%30.07 "HgN/A
7:20 PM52 °FPassing clouds.10 mph82%30.07 "HgN/A
6:50 PM50 °FPassing clouds.9 mph88%30.07 "HgN/A
6:20 PM50 °FPassing clouds.8 mph88%30.07 "HgN/A
5:50 PM48 °FPassing clouds.8 mph94%30.09 "HgN/A
5:20 PM48 °FPassing clouds.10 mph94%30.09 "HgN/A
4:50 PM50 °FPassing clouds.9 mph82%30.09 "HgN/A
4:20 PM50 °FPassing clouds.7 mph82%30.12 "HgN/A
3:50 PM50 °FPassing clouds.9 mph82%30.12 "HgN/A
3:20 PM50 °FPassing clouds.7 mph82%30.12 "HgN/A
2:50 PM50 °FPartly sunny.9 mph82%30.15 "HgN/A
2:20 PM50 °FPartly sunny.13 mph76%30.15 "HgN/A
1:50 PM52 °FPartly sunny.12 mph72%30.18 "HgN/A
1:20 PM50 °FPartly sunny.10 mph76%30.18 "HgN/A
12:50 PM50 °FOvercast.9 mph76%30.21 "HgN/A
12:20 PM48 °FPartly sunny.9 mph82%30.21 "HgN/A
11:50 AM48 °FPartly sunny.8 mph82%30.24 "HgN/A
11:20 AM48 °FPartly sunny.10 mph76%30.24 "HgN/A
10:50 AM48 °FScattered clouds.10 mph76%30.24 "HgN/A
10:20 AM46 °FScattered clouds.9 mph82%30.24 "HgN/A
9:50 AM46 °FPartly sunny.8 mph82%30.24 "HgN/A
9:20 AM46 °FPartly sunny.7 mph82%30.27 "HgN/A
8:50 AM45 °FBroken clouds.9 mph87%30.27 "HgN/A
8:20 AM45 °FScattered clouds.8 mph87%30.27 "HgN/A
7:50 AM45 °FPassing clouds.8 mph87%30.27 "HgN/A
7:20 AM45 °FPassing clouds.7 mph87%30.27 "HgN/A
Weather by CustomWeather, © 2014

See weather overviewHow to use our weather pages